Wildwood, NJ

11:12 AM EDT on September 17, 2019 (GMT -0400)
Cape May County

Weather History for KWWD - August, 2019

Change the Weather History Date:

Thursday, August 22, 2019

  Actual Average Record
Temperature  
Mean Temperature 82 °F -  
Max Temperature 91 °F 79 °F 91 °F (2019)
Min Temperature 72 °F 65 °F 59 °F (2004)
Cooling Degree Days 18    
Growing Degree Days 32 (Base 50)    
Moisture  
Dew Point 72 °F    
Average Humidity 76    
Maximum Humidity 94    
Minimum Humidity 52    
Precipitation  
Precipitation 0.31 in - - ()
Sea Level Pressure  
Sea Level Pressure 29.93 in    
Wind  
Wind Speed 8 mph (WSW)    
Max Wind Speed 23 mph    
Max Gust Speed 40 mph    
Visibility 10 miles    
Events Rain , Thunderstorm    
Averages and records for this station are not official NWS values.
T = Trace of Precipitation, MM = Missing Value Source: NWS Daily Summary

Daily Weather History Graph

Daily Weather History Graph

Search for Another Location

Airport or City:

Astronomy

Aug. 22, 2019 Rise Set
Actual Time 6:19 AM EDT 7:45 PM EDT
Civil Twilight 5:51 AM EDT 8:13 PM EDT
Nautical Twilight 5:17 AM EDT 8:46 PM EDT
Astronomical Twilight 4:41 AM EDT 9:22 PM EDT
Moon 11:37 PM EDT (8/22) 12:48 PM EDT (8/22)
Length of Visible Light 14h 22m
Length of Day
13h 26m
Waning Gibbous, 60% of the Moon is Illuminated
Aug 22
Waning Gibbous
Aug 23
Last Quarter
Aug 30
New
Sep 5
First Quarter
Sep 14
Full

Hourly Weather History & Observations

Time (EDT) Temp. Heat Index Dew Point Humidity Pressure Visibility Wind Dir Wind Speed Gust Speed Precip Events Conditions
12:56 AM 77.0 °F - 75.0 °F 94% 29.91 in 10.0 mi WSW 6.9 mph - N/A   Partly Cloudy
1:56 AM 77.0 °F - 75.0 °F 94% 29.91 in 10.0 mi WSW 6.9 mph - N/A   Mostly Cloudy
2:56 AM 77.0 °F - 73.0 °F 88% 29.90 in 10.0 mi WSW 13.8 mph 20.7 mph N/A   Scattered Clouds
3:56 AM 75.9 °F - 72.0 °F 87% 29.88 in 10.0 mi SW 8.1 mph - N/A   Mostly Cloudy
4:56 AM 75.9 °F - 72.0 °F 87% 29.89 in 10.0 mi WSW 6.9 mph - N/A   Clear
5:56 AM 75.0 °F - 72.0 °F 90% 29.89 in 10.0 mi West 4.6 mph - N/A   Clear
6:56 AM 75.9 °F - 72.0 °F 87% 29.91 in 10.0 mi West 8.1 mph - N/A   Clear
7:56 AM 78.1 °F - 73.0 °F 84% 29.93 in 10.0 mi West 6.9 mph - N/A   Clear
8:56 AM 80.1 °F 84.5 °F 73.9 °F 81% 29.96 in 10.0 mi West 8.1 mph - N/A   Clear
9:56 AM 82.0 °F 87.4 °F 73.0 °F 74% 29.96 in 10.0 mi West 9.2 mph - N/A   Clear
10:56 AM 84.0 °F 90.2 °F 73.0 °F 69% 29.95 in 10.0 mi West 9.2 mph - N/A   Clear
11:56 AM 84.0 °F 89.6 °F 72.0 °F 67% 29.96 in 10.0 mi West 9.2 mph - N/A   Clear
12:56 PM 86.0 °F 90.7 °F 70.0 °F 59% 29.94 in 10.0 mi Variable 5.8 mph - N/A   Clear
1:56 PM 89.1 °F 96.0 °F 72.0 °F 57% 29.95 in 10.0 mi West 6.9 mph - N/A   Clear
2:56 PM 90.0 °F 95.4 °F 70.0 °F 52% 29.93 in 10.0 mi SW 9.2 mph - N/A   Clear
3:56 PM 89.1 °F 97.0 °F 73.0 °F 59% 29.91 in 10.0 mi SSE 8.1 mph - N/A   Clear
4:56 PM 88.0 °F 95.6 °F 73.0 °F 61% 29.90 in 10.0 mi SSE 9.2 mph - N/A   Clear
5:56 PM 87.1 °F 94.5 °F 73.0 °F 63% 29.90 in 10.0 mi South 8.1 mph - N/A   Clear
6:56 PM 82.9 °F 88.8 °F 73.0 °F 72% 29.91 in 10.0 mi South 8.1 mph - N/A   Clear
7:56 PM 80.1 °F 83.8 °F 72.0 °F 76% 29.91 in 10.0 mi SSW 5.8 mph - N/A   Clear
8:56 PM 80.1 °F 83.8 °F 72.0 °F 76% 29.92 in 8.0 mi South 5.8 mph - N/A   Clear
9:56 PM 80.1 °F 83.8 °F 72.0 °F 76% 29.93 in 10.0 mi SSW 6.9 mph - N/A   Clear
10:56 PM 79.0 °F - 73.0 °F 82% 29.94 in 10.0 mi SSW 6.9 mph - N/A   Clear
11:27 PM 78.8 °F - 69.8 °F 74% 29.97 in 10.0 mi West 21.9 mph 40.3 mph N/A Thunderstorm Mostly Cloudy
11:39 PM 75.2 °F - 69.8 °F 83% 29.97 in 5.0 mi West 23.0 mph 36.8 mph 0.05 in Rain , Thunderstorm Heavy Thunderstorms and Rain
11:56 PM 72.0 °F - 69.1 °F 91% 29.98 in 6.0 mi West 12.7 mph 21.9 mph 0.31 in Rain Heavy Rain